User: anonymous   Login
Location: Unspecified
(0.0000°N, 0.0000°E)
Time: 09:18:58
(UTC+00:00)
Language:

NTS 1 - Orbit

View from above orbital plane
View from above orbital plane
View from above satellite
View from above satellite

Ground track
Ground track

The orbit data is extracted from the following two-line orbital elements,

1  7369U 74054A   18109.44678625 +.00000084 +00000-0 +00000-0 0  9998
2  7369 125.0301 286.4832 0074223 259.7648 128.8723 03.07214288491045
Epoch (UTC): 19 April 2018 10:43:22
Eccentricity: 0.0074223
inclination: 125.0301°
perigee height: 13461 km
apogee height: 13758 km
right ascension of ascending node: 286.4832°
argument of perigee: 259.7648°
revolutions per day: 3.07214288
mean anomaly at epoch: 128.8723°
orbit number at epoch: 49104

The dashed part of the orbit path shows where the satellite is in the earth's shadow,  

DLR